Location: Olympia
(47.0371°N, 122.8993°W)
Time: 10:43:05
(UTC-08:00)

ARIANE 6 FM1 Upper Stage - Visible Passes

Search period start: 12 December 2025 00:00
Search period end: 22 December 2025 00:00
Orbit: 522 x 611 km, 62.0° (Epoch: 12 December)

Date Brightness Start Highest point End Pass type
(mag) Time Alt. Az. Time Alt. Az. Time Alt. Az.
12 Dec 5.4 06:33:03 10° S 06:36:15 23° ESE 06:39:26 10° ENE visible
13 Dec 4.5 06:32:55 10° S 06:36:34 33° ESE 06:40:09 10° ENE visible
14 Dec 3.7 06:32:59 10° SSW 06:36:53 48° SE 06:40:44 10° NE visible
15 Dec 2.8 06:33:13 10° SSW 06:37:14 71° SE 06:41:13 10° NE visible
16 Dec 5.7 04:57:12 10° SE 04:59:08 13° ESE 05:01:03 10° E visible
16 Dec 2.5 06:33:35 10° SW 06:37:37 80° NW 06:41:37 10° NE visible
17 Dec 5.2 04:56:30 10° SSE 04:59:20 19° ESE 05:02:13 10° ENE visible
17 Dec 2.6 06:34:04 10° WSW 06:38:02 56° NW 06:41:58 10° NE visible
18 Dec 4.5 04:58:52 26° SE 04:59:34 27° ESE 05:02:59 10° ENE visible
18 Dec 3.0 06:35:00 12° WSW 06:38:28 41° NW 06:42:15 10° NNE visible
19 Dec 4.0 05:00:32 36° E 05:00:32 36° E 05:03:35 10° NE visible
19 Dec 3.4 06:36:38 18° W 06:38:57 31° NW 06:42:31 10° NNE visible
20 Dec 4.2 05:01:49 31° ENE 05:01:49 31° ENE 05:04:03 10° NE visible
20 Dec 3.7 06:37:53 19° WNW 06:39:26 24° NNW 06:42:43 10° NNE visible
21 Dec 4.5 05:02:49 23° NE 05:02:49 23° NE 05:04:26 10° NE visible
21 Dec 4.0 06:38:53 18° NW 06:39:57 20° NNW 06:42:55 10° NNE visible
